General Aviation Weather

Text Reports

Enter one or more of the following location identifiers separated by a space:

Zip Code, Four-Character ICAO or Three-Character IATA airport codes.

METAR - Aviation Routine Weather Report
KSHD - Staunton, Virginia
Updated at 12:35 AM GMT on July 31, 2014 (8:35 PM EDT):
METAR KSHD 310035Z AUTO 17003KT 10SM SCT060 SCT070 21/14 A3010 RMK AO2 T02050135
TAF - Terminal Area Forecast
KSHD - Staunton, Virginia
Updated at 12:35 AM GMT on July 31, 2014 (8:35 PM EDT):
No TAF is currently available for this location.
Decoded:
No decoded TAF is available.
PIREP - Pilot Weather Report
KSHD - Staunton, Virginia
Updated at 12:35 AM GMT on July 31, 2014 (8:35 PM EDT):
No PIREP is currently available for this location.
AIRMET - Airmens Meteorological Information
KSHD - Staunton, Virginia
Updated at 12:35 AM GMT on July 31, 2014 (8:35 PM EDT):
No AIRMET is currently available for this location.
SIGMET - Significant Meteorological Information
KSHD - Staunton, Virginia
Updated at 12:35 AM GMT on July 31, 2014 (8:35 PM EDT):
No SIGMET is currently available for this location.
NOTAM - Notice to Airmen
KSHD - Staunton, Virginia
Updated at 12:35 AM GMT on July 31, 2014 (8:35 PM EDT):
No NOTAM is currently available for this location.
Forecast Area
KSHD - Staunton, Virginia
Updated at 12:35 AM GMT on July 31, 2014 (8:35 PM EDT):
No NOTAM is currently available for this location.
Aviation Weather Maps